Zurück zum Katalog

FENGYUN 1C DEB

AktivSSO
NORAD 30561·DEBRIS·🇨🇳 China

Gestartet May 10, 1999 von Taiyuan Satellite Launch Center

Loading…

Nächste Überflüge (nächste 24 Stunden)

TLE

AktuellSource: Space-Track

Epoche: Sep 14, 2026, 15:36 UTC

1 30561U 99025ALB 26257.65060641  .00000353  00000-0  21432-3 0  9996
2 30561  98.7328 257.2333 0060717  51.7133  16.3734 14.11557018  8713

Verfolge FENGYUN 1C DEB in Echtzeit mit AllMySat

Download on the App Store